Location: Keewatin
(47.4004°N, 93.0827°W)
Time: 05:27:27
(UTC+00:00)

Envisat - Pass Details

Date: 12 December 2019
Orbit: 764 x 766 km, 98.1° (Epoch: 20 January)

Event Time Altitude Azimuth Distance (km) Brightness Sun altitude
Rises 11:45:54 0° 28° (NNE) 3,244 6.4 -20.0°
Reaches altitude 10° 11:49:03 10° 49° (NE) 2,311 5.9 -19.5°
Maximum altitude 11:52:20 17° 89° (E) 1,865 6.0 -19.0°
Drops below altitude 10° 11:55:35 10° 129° (SE) 2,299 6.5 -18.5°
Sets 11:58:41 0° 149° (SSE) 3,219 6.9 -17.9°
